Enterprise, AL

5:30 AM CST on February 21, 2017 (GMT -0600)
Fort Rucker / Ozark

Weather History for KLOR - February, 2013

Change the Weather History Date:

Monday, February 18, 2013

  Actual Average (KOZR) Record (KOZR)
Temperature  
Mean Temperature 44 °F -  
Max Temperature 61 °F 62 °F 84 °F (2000)
Min Temperature 28 °F 41 °F 27 °F (2015)
Degree Days  
Heating Degree Days 20    
Moisture  
Dew Point 29 °F    
Average Humidity 56    
Maximum Humidity 92    
Minimum Humidity 28    
Precipitation  
Precipitation 0.00 in - - ()
Sea Level Pressure  
Sea Level Pressure 30.26 in    
Wind  
Wind Speed 3 mph (SSE)    
Max Wind Speed 10 mph    
Max Gust Speed 20 mph    
Visibility 10 miles    
Events      
Averages and records for this station are not official NWS values.
T = Trace of Precipitation, MM = Missing Value Source: NWS Daily Summary

Daily Weather History Graph

Daily Weather History Graph

Search for Another Location

Airport or City:

Trip Planner

Search our weather history database for the weather conditions in past years. The results will help you decide how hot, cold, wet, or windy it might be!

Date:

Astronomy

Feb. 18, 2013 Rise Set
Actual Time 6:21 AM CST 5:32 PM CST
Civil Twilight 5:56 AM CST 5:57 PM CST
Nautical Twilight 5:28 AM CST 6:25 PM CST
Astronomical Twilight 5:00 AM CST 6:54 PM CST
Moon 11:28 AM CST (2/18) 12:50 AM CST (2/18)
Length of Visible Light 12h 00m
Length of Day
11h 11m
First Quarter, 58% of the Moon is Illuminated
Feb 18
First Quarter
Feb 25
Full
Mar 4
Last Quarter
Mar 11
New
Mar 19
First Quarter

Hourly Weather History & Observations

Time (CST) Temp. Dew Point Humidity Pressure Visibility Wind Dir Wind Speed Gust Speed Precip Events Conditions
12:53 AM 30.0 °F 26.1 °F 85% 30.32 in 10.0 mi Calm Calm - N/A   Clear
1:53 AM 28.9 °F 25.0 °F 85% 30.31 in 10.0 mi Calm Calm - N/A   Clear
2:53 AM 28.9 °F 26.1 °F 89% 30.30 in 10.0 mi Calm Calm - N/A   Clear
3:53 AM 28.0 °F 25.0 °F 88% 30.30 in 10.0 mi Calm Calm - N/A   Clear
4:53 AM 28.0 °F 25.0 °F 88% 30.31 in 10.0 mi Calm Calm - N/A   Clear
5:53 AM 28.0 °F 24.1 °F 85% 30.32 in 10.0 mi Calm Calm - N/A   Clear
6:53 AM 28.9 °F 27.0 °F 92% 30.34 in 10.0 mi Calm Calm - N/A   Clear
7:53 AM 39.0 °F 33.1 °F 79% 30.35 in 10.0 mi Calm Calm - N/A   Clear
8:53 AM 48.9 °F 30.0 °F 48% 30.35 in 10.0 mi South 6.9 mph - N/A   Clear
9:53 AM 55.0 °F 25.0 °F 31% 30.35 in 10.0 mi South 9.2 mph - N/A   Clear
10:06 AM 55.4 °F 26.6 °F 33% 30.35 in 10.0 mi South 8.1 mph - N/A   Partly Cloudy
10:53 AM 57.9 °F 25.0 °F 28% 30.35 in 10.0 mi SSE 9.2 mph - N/A   Clear
11:53 AM 59.0 °F 27.0 °F 29% 30.32 in 10.0 mi SSE 6.9 mph - N/A   Clear
12:53 PM 60.1 °F 27.0 °F 28% 30.27 in 10.0 mi Variable 6.9 mph 16.1 mph N/A   Clear
1:53 PM 61.0 °F 28.9 °F 30% 30.26 in 10.0 mi SSE 9.2 mph - N/A   Clear
2:53 PM 61.0 °F 30.0 °F 31% 30.24 in 10.0 mi Variable 5.8 mph 19.6 mph N/A   Clear
3:53 PM 60.1 °F 30.9 °F 33% 30.22 in 10.0 mi South 10.4 mph 18.4 mph N/A   Clear
4:53 PM 60.1 °F 30.0 °F 32% 30.19 in 10.0 mi SSE 9.2 mph - N/A   Clear
5:53 PM 55.9 °F 30.9 °F 39% 30.19 in 10.0 mi SE 4.6 mph - N/A   Clear
6:53 PM 54.0 °F 35.1 °F 49% 30.18 in 10.0 mi South 6.9 mph - N/A   Scattered Clouds
7:53 PM 51.1 °F 35.1 °F 54% 30.19 in 10.0 mi South 5.8 mph - N/A   Clear
8:53 PM 48.0 °F 36.0 °F 63% 30.19 in 10.0 mi South 3.5 mph - N/A   Clear
9:53 PM 48.9 °F 33.1 °F 54% 30.16 in 10.0 mi South 6.9 mph - N/A   Overcast
10:53 PM 48.0 °F 33.1 °F 56% 30.14 in 10.0 mi Variable 5.8 mph - N/A   Clear
11:53 PM 46.9 °F 34.0 °F 61% 30.11 in 10.0 mi South 4.6 mph - N/A   Clear